This is the latest recevied weather packets stored in our database for station/object W6UA-13. If no packets are shown the sender has not sent any weather packets the latest 10 day(s).
| Time | Temp. | Humidity | Pressure | Rain* | Wind** | Luminosity | Snow |
|---|---|---|---|---|---|---|---|
| 1777844984 | 17.78° C | 56% | 1014.3 hPa | 0 mm | - | 817 W/m² | - |
| 1777844084 | 18.33° C | 56% | 1014.3 hPa | 0 mm | - | 840 W/m² | - |
| 1777843184 | 17.78° C | 58% | 1014.2 hPa | 0 mm | - | 854 W/m² | - |
| 1777842284 | 18.33° C | 58% | 1014.3 hPa | 0 mm | - | 874 W/m² | - |
| 1777841384 | 17.22° C | 60% | 1014.4 hPa | 0 mm | - | 884 W/m² | - |
| 1777840484 | 17.22° C | 60% | 1014.6 hPa | 0 mm | - | 895 W/m² | - |
| 1777839584 | 16.67° C | 63% | 1014.7 hPa | 0 mm | - | 900 W/m² | - |
| 1777838684 | 17.78° C | 60% | 1014.7 hPa | 0 mm | - | 900 W/m² | - |
| 1777837784 | 17.78° C | 58% | 1014.8 hPa | 0 mm | - | 896 W/m² | - |
| 1777836884 | 17.78° C | 56% | 1014.8 hPa | 0 mm | - | 902 W/m² | - |
| 1777835984 | 17.78° C | 56% | 1014.8 hPa | 0 mm | - | 893 W/m² | - |
| 1777835084 | 18.33° C | 54% | 1014.8 hPa | 0 mm | - | 895 W/m² | - |
| 1777834184 | 17.22° C | 56% | 1014.8 hPa | 0 mm | - | 573 W/m² | - |
| 1777833284 | 16.67° C | 55% | 1014.9 hPa | 0 mm | - | 527 W/m² | - |
| 1777832384 | 16.67° C | 56% | 1014.9 hPa | 0 mm | - | 417 W/m² | - |
| 1777831484 | 16.11° C | 57% | 1014.9 hPa | 0 mm | - | 403 W/m² | - |
| 1777830584 | 15.56° C | 60% | 1014.9 hPa | 0 mm | - | 369 W/m² | - |
| 1777829684 | 15.56° C | 64% | 1014.9 hPa | 0 mm | - | 295 W/m² | - |
| 1777828784 | 15° C | 65% | 1014.8 hPa | 0 mm | - | 287 W/m² | - |
| 1777827884 | 15° C | 71% | 1014.8 hPa | 0 mm | - | 253 W/m² | - |
| 1777826984 | 15° C | 71% | 1014.5 hPa | 0 mm | - | 246 W/m² | - |
| 1777826084 | 15° C | 73% | 1014.4 hPa | 0 mm | - | 211 W/m² | - |
| 1777825184 | 14.44° C | 74% | 1014.3 hPa | 0 mm | - | 186 W/m² | - |
| 1777824284 | 14.44° C | 74% | 1014.2 hPa | 0 mm | - | 234 W/m² | - |
| 1777823384 | 13.89° C | 75% | 1014.2 hPa | 0 mm | - | 171 W/m² | - |
* Rain latest hour (hover to see other rain measurements)
** Current wind speed in m/s (hover to see current wind gust speed)